User: anonymous   Login
Location: Unspecified
(0.0000°N, 0.0000°E)
Time: 14:54:19
(UTC+00:00)
Language:

Tandem-X - Orbit

View from above orbital plane
View from above orbital plane
View from above satellite
View from above satellite

Ground track
Ground track

The orbit data is extracted from the following two-line orbital elements,

1 36605U 10030A   22027.22143429 -.00000738  00000-0 -31964-4 0  9991
2 36605  97.4453  36.8274 0001840  71.7777 353.9244 15.19146256643422
Epoch (UTC): 27 January 2022 05:18:51
Eccentricity: 0.0001840
inclination: 97.4453°
perigee height: 507 km
apogee height: 509 km
right ascension of ascending node: 36.8274°
argument of perigee: 71.7777°
revolutions per day: 15.19146256
mean anomaly at epoch: 353.9244°
orbit number at epoch: 64342

The dashed part of the orbit path shows where the satellite is in the earth's shadow,  

DLR